This is the latest recevied weather packets stored in our database for station/object KO4LCK. If no packets are shown the sender has not sent any weather packets the latest 1 day(s).
| Time | Temp. | Humidity | Pressure | Rain* | Wind** | Luminosity | Snow |
|---|---|---|---|---|---|---|---|
| 1778046650 | 18.89° C | 68% | 1013.7 hPa | 0 mm | 0 m/s | 0 W/m² | - |
| 1778046348 | 19.44° C | 68% | 1013.8 hPa | 0 mm | 0 m/s | 0 W/m² | - |
| 1778046043 | 19.44° C | 67% | 1013.8 hPa | 0 mm | 0 m/s | 0 W/m² | - |
| 1778045741 | 19.44° C | 67% | 1013.5 hPa | 0 mm | 0 m/s | 0 W/m² | - |
| 1778045439 | 19.44° C | 66% | 1013.5 hPa | 0 mm | 0 m/s | 0 W/m² | - |
| 1778045137 | 19.44° C | 66% | 1013.8 hPa | 0 mm | 0 m/s | 0 W/m² | - |
| 1778044835 | 20° C | 66% | 1013.7 hPa | 0 mm | 0 m/s | 0 W/m² | - |
| 1778044532 | 20° C | 65% | 1013.7 hPa | 0 mm | 0 m/s | 0 W/m² | - |
| 1778044228 | 20° C | 65% | 1013.8 hPa | 0 mm | 0 m/s | 0 W/m² | - |
| 1778043926 | 20° C | 65% | 1013.8 hPa | 0 mm | 0 m/s | 0 W/m² | - |
| 1778043624 | 20° C | 65% | 1013.9 hPa | 0 mm | 0 m/s | 0 W/m² | - |
| 1778043320 | 20° C | 64% | 1013.9 hPa | 0 mm | 0 m/s | 0 W/m² | - |
| 1778043017 | 20° C | 63% | 1014 hPa | 0 mm | 0 m/s | 0 W/m² | - |
| 1778042715 | 20° C | 64% | 1014 hPa | 0 mm | 0 m/s | 0 W/m² | - |
| 1778042411 | 20° C | 64% | 1013.8 hPa | 0 mm | 0 m/s | 0 W/m² | - |
| 1778042108 | 20.56° C | 64% | 1013.7 hPa | 0 mm | 0 m/s | 0 W/m² | - |
| 1778041807 | 21.11° C | 62% | 1013.3 hPa | 0 mm | 0 m/s | 0 W/m² | - |
| 1778041506 | 21.11° C | 57% | 1013.2 hPa | 0 mm | 0 m/s | 0 W/m² | - |
| 1778041203 | 21.11° C | 56% | 1013.1 hPa | 0 mm | 0.89 m/s, 139° | 0 W/m² | - |
| 1778040901 | 21.11° C | 57% | 1013.2 hPa | 0 mm | 0 m/s | 0 W/m² | - |
| 1778040598 | 21.11° C | 58% | 1013.4 hPa | 0 mm | 0 m/s | 0 W/m² | - |
| 1778040296 | 21.67° C | 55% | 1013.6 hPa | 0 mm | 0 m/s | 0 W/m² | - |
| 1778039991 | 21.67° C | 54% | 1013.6 hPa | 0 mm | 0.89 m/s, 180° | 0 W/m² | - |
| 1778039689 | 21.67° C | 55% | 1013.6 hPa | 0 mm | 0 m/s | 0 W/m² | - |
| 1778039385 | 21.67° C | 55% | 1013.7 hPa | 0 mm | 0.89 m/s, 230° | 0 W/m² | - |
* Rain latest hour (hover to see other rain measurements)
** Current wind speed in m/s (hover to see current wind gust speed)